TimePST,TemperatureF,Dew PointF,Humidity,Sea Level PressureIn,VisibilityMPH,Wind Direction,Wind SpeedMPH,Gust SpeedMPH,PrecipitationIn,Events,Conditions,WindDirDegrees,DateUTC
12:56 AM,54.0,53.1,97,30.10,-9999.0,East,8.1,-,N/A,,Partly Cloudy,100,2012-11-29 08:56:00
1:56 AM,52.0,50.0,93,30.11,-9999.0,WSW,6.9,-,N/A,,Clear,250,2012-11-29 09:56:00
2:56 AM,51.1,50.0,96,30.12,-9999.0,ENE,3.5,-,N/A,,Scattered Clouds,70,2012-11-29 10:56:00
3:56 AM,52.0,51.1,97,30.11,-9999.0,ESE,3.5,-,N/A,,Partly Cloudy,110,2012-11-29 11:56:00
4:56 AM,51.1,50.0,96,30.12,-9999.0,Calm,Calm,-,N/A,,Clear,0,2012-11-29 12:56:00
5:56 AM,53.1,52.0,96,30.13,-9999.0,SSE,6.9,-,N/A,,Clear,160,2012-11-29 13:56:00
6:56 AM,52.0,51.1,97,30.14,-9999.0,ESE,3.5,-,N/A,,Clear,110,2012-11-29 14:56:00
7:14 AM,53.6,51.8,94,30.13,10.0,East,5.8,-,N/A,,Overcast,100,2012-11-29 15:14:00
7:56 AM,53.1,52.0,96,30.14,10.0,SE,4.6,-,N/A,,Mostly Cloudy,140,2012-11-29 15:56:00
8:37 AM,55.4,53.6,94,30.14,3.0,SE,11.5,-,N/A,,Mostly Cloudy,140,2012-11-29 16:37:00
8:56 AM,55.9,54.0,93,30.15,3.0,SE,11.5,-,N/A,,Mostly Cloudy,140,2012-11-29 16:56:00
9:56 AM,59.0,55.9,90,30.17,5.0,SSE,12.7,-,N/A,,Overcast,150,2012-11-29 17:56:00
10:56 AM,62.1,57.9,86,30.15,7.0,SE,11.5,-,N/A,,Overcast,140,2012-11-29 18:56:00
11:56 AM,62.1,57.9,86,30.14,7.0,SSE,13.8,-,N/A,,Overcast,150,2012-11-29 19:56:00
12:56 PM,63.0,57.9,84,30.11,7.0,SE,13.8,-,N/A,,Overcast,130,2012-11-29 20:56:00
1:56 PM,64.9,57.0,75,30.09,6.0,ESE,12.7,-,N/A,,Haze,110,2012-11-29 21:56:00
2:56 PM,64.9,57.9,78,30.07,6.0,ESE,11.5,-,N/A,,Haze,110,2012-11-29 22:56:00
3:56 PM,64.0,57.0,78,30.08,8.0,SSE,8.1,-,N/A,,Overcast,160,2012-11-29 23:56:00
4:56 PM,62.1,57.9,86,30.09,9.0,South,15.0,-,0.00,Rain,Light Rain,190,2012-11-30 00:56:00
5:37 PM,60.8,57.2,88,30.09,9.0,South,12.7,-,0.00,,Overcast,190,2012-11-30 01:37:00
5:49 PM,60.8,59.0,94,30.09,2.5,SE,5.8,-,0.00,Rain,Light Rain,130,2012-11-30 01:49:00
5:56 PM,60.1,59.0,96,30.09,8.0,SSE,4.6,-,0.00,,Overcast,150,2012-11-30 01:56:00
6:56 PM,60.1,57.0,90,30.09,10.0,SE,10.4,-,N/A,,Mostly Cloudy,140,2012-11-30 02:56:00
7:56 PM,60.1,55.9,86,30.08,10.0,ESE,10.4,-,N/A,,Overcast,120,2012-11-30 03:56:00
8:56 PM,57.9,55.9,93,30.09,10.0,ESE,9.2,-,N/A,,Overcast,110,2012-11-30 04:56:00
9:56 PM,59.0,55.9,90,30.06,10.0,SE,8.1,-,N/A,,Overcast,140,2012-11-30 05:56:00
10:56 PM,57.9,55.0,90,30.07,10.0,SSE,8.1,-,N/A,,Overcast,150,2012-11-30 06:56:00
11:56 PM,57.9,55.0,90,30.07,10.0,SE,10.4,-,N/A,,Overcast,140,2012-11-30 07:56:00